This demonstration page uses our WeatherBlox Daily Observations layout. Learn more.

Left ArrowRight Arrow

Hourly Observations for September 1, 2015

Temp ( °F °C ) Dew Point ( °F °C ) Humidity (%) Winds ( mph kmh ) Pressure ( in mb ) Visibility ( mi km ) Precip ( " mm )
12:52 am 00:52 Clear 73 22.8 69 20.6 87 87 SSE 7 11 29.90 1013 10 16 0.00 0.00
1:52 am 01:52 Clear 74 23.3 70 21.1 88 88 SSE 8 13 29.90 1013 10 16 0.00 0.00
2:52 am 02:52 Clear 72 22.2 69 20.6 91 91 SSE 9 15 29.90 1013 10 16 0.00 0.00
3:52 am 03:52 Clear 71 21.7 68 20 90 90 SSE 9 15 29.90 1012 10 16 0.00 0.00
4:52 am 04:52 Clear 70 21.1 68 20 93 93 SSE 8 13 29.89 1012 10 16 0.00 0.00
5:52 am 05:52 Clear 70 21.1 68 20 93 93 SSE 9 15 29.90 1013 10 16 0.00 0.00
6:52 am 06:52 Partly Cloudy 71 21.7 68 20 90 90 S 9 15 29.91 1013 10 16 0.00 0.00
7:52 am 07:52 Partly Cloudy 72 22.2 68 20 87 87 SSE 13 20 29.92 1013 10 16 0.00 0.00
8:52 am 08:52 Partly Cloudy 74 23.3 68 20 82 82 S 9 15 29.92 1013 10 16 0.00 0.00
9:52 am 09:52 Mostly Cloudy 77 25 69 20.6 77 77 S 12 19 29.92 1013 10 16 0.00 0.00
10:52 am 10:52 Mostly Cloudy 81 27.2 68 20 65 65 S 10 17 29.92 1013 10 16 0.00 0.00
11:52 am 11:52 Mostly Cloudy 82 27.8 68 20 63 63 S 10 17 29.92 1013 10 16 0.00 0.00
12:52 pm 12:52 Mostly Cloudy 85 29.4 69 20.6 59 59 S 14 22 29.90 1013 10 16 0.00 0.00
1:52 pm 13:52 Partly Cloudy 88 31.1 70 21.1 55 55 S 13 20 29.90 1012 10 16 0.00 0.00
2:52 pm 14:52 Mostly Cloudy 88 31.1 69 20.6 54 54 S 16 26 29.89 1012 10 16 0.00 0.00
3:52 pm 15:52 Mostly Cloudy 88 31.1 71 21.7 57 57 SSE 15 24 29.88 1012 10 16 0.00 0.00
4:52 pm 16:52 Mostly Cloudy 89 31.7 71 21.7 55 55 SSE 14 22 29.87 1011 10 16 0.00 0.00
5:52 pm 17:52 Mostly Cloudy 88 31.1 73 22.8 61 61 SSE 16 26 29.86 1011 10 16 0.00 0.00
6:52 pm 18:52 Mostly Sunny 84 29 66 19 55 55 SSE 13 20 29.85 1011 10 16 0.00 0.00
7:52 pm 19:52 Mostly Cloudy 83 28.3 70 21.1 65 65 SSE 15 24 29.86 1011 10 16 0.00 0.00
8:52 pm 20:52 Mostly Cloudy 81 27.2 68 20 65 65 SSE 14 22 29.87 1012 10 16 0.00 0.00
9:52 pm 21:52 Cloudy 80 26.7 68 20 67 67 SSE 14 22 29.88 1012 10 16 0.00 0.00
10:52 pm 22:52 Mostly Cloudy 81 27.2 67 19.4 62 62 S 18 30 29.89 1012 10 16 0.00 0.00
11:52 pm 23:52 Mostly Cloudy 80 26.7 67 19.4 64 64 S 21 33 29.89 1012 10 16 0.00 0.00

Powered by AerisWeather